TimeCST,TemperatureF,Dew PointF,Humidity,Sea Level PressureIn,VisibilityMPH,Wind Direction,Wind SpeedMPH,Gust SpeedMPH,PrecipitationIn,Events,Conditions,WindDirDegrees,DateUTC
12:15 AM,24.8,23.0,93,29.72,10.0,West,9.2,-,N/A,,Overcast,280,2013-02-13 06:15:00
12:35 AM,24.8,24.8,100,29.72,10.0,West,8.1,-,N/A,,Overcast,280,2013-02-13 06:35:00
12:55 AM,26.6,24.8,93,29.71,10.0,West,8.1,-,N/A,,Overcast,280,2013-02-13 06:55:00
1:15 AM,26.6,24.8,93,29.72,10.0,West,9.2,-,N/A,,Overcast,270,2013-02-13 07:15:00
1:35 AM,26.6,24.8,93,29.70,10.0,West,10.4,-,N/A,,Overcast,260,2013-02-13 07:35:00
1:55 AM,28.4,26.6,93,29.69,10.0,WSW,13.8,-,N/A,,Overcast,250,2013-02-13 07:55:00
2:15 AM,28.4,26.6,93,29.68,10.0,West,9.2,-,N/A,,Overcast,260,2013-02-13 08:15:00
2:35 AM,28.4,26.6,93,29.67,10.0,WSW,10.4,-,N/A,,Overcast,250,2013-02-13 08:35:00
2:55 AM,28.4,26.6,93,29.66,10.0,SW,6.9,-,N/A,,Overcast,230,2013-02-13 08:55:00
3:15 AM,28.4,26.6,93,29.66,10.0,WSW,6.9,-,N/A,,Mostly Cloudy,250,2013-02-13 09:15:00
3:35 AM,28.4,26.6,93,29.65,10.0,WNW,5.8,-,N/A,,Overcast,290,2013-02-13 09:35:00
3:55 AM,28.4,26.6,93,29.64,10.0,WSW,6.9,-,N/A,,Overcast,250,2013-02-13 09:55:00
4:15 AM,28.4,26.6,93,29.63,10.0,WSW,6.9,-,N/A,,Overcast,250,2013-02-13 10:15:00
4:35 AM,28.4,26.6,93,29.62,10.0,WSW,8.1,-,N/A,,Overcast,250,2013-02-13 10:35:00
4:55 AM,28.4,26.6,93,29.61,10.0,WSW,6.9,-,N/A,,Overcast,250,2013-02-13 10:55:00
5:15 AM,28.4,26.6,93,29.60,10.0,Calm,Calm,-,N/A,,Overcast,0,2013-02-13 11:15:00
5:35 AM,28.4,26.6,93,29.60,10.0,SSW,3.5,-,N/A,,Overcast,210,2013-02-13 11:35:00
5:55 AM,28.4,28.4,100,29.59,9.0,SW,4.6,-,0.01,Snow,Light Snow,220,2013-02-13 11:55:00
6:15 AM,28.4,28.4,100,29.58,5.0,SW,3.5,-,0.03,Snow,Light Snow,220,2013-02-13 12:15:00
6:35 AM,28.4,28.4,100,29.57,2.5,SSW,6.9,-,0.09,Snow,Light Snow,210,2013-02-13 12:35:00
6:55 AM,28.4,28.4,100,29.57,1.8,SSW,4.6,-,0.29,Snow,Light Snow,200,2013-02-13 12:55:00
7:15 AM,28.4,28.4,100,29.56,1.5,SSW,5.8,-,0.13,Snow,Light Snow,210,2013-02-13 13:15:00
7:35 AM,28.4,28.4,100,29.56,2.0,SW,5.8,-,0.26,Snow,Light Snow,220,2013-02-13 13:35:00
7:55 AM,28.4,28.4,100,29.55,1.5,SW,5.8,-,0.32,Snow,Light Snow,220,2013-02-13 13:55:00
8:35 AM,28.4,28.4,100,29.56,1.2,West,8.1,-,0.29,Snow,Light Snow,260,2013-02-13 14:35:00
8:55 AM,30.2,30.2,100,29.56,1.0,West,8.1,-,0.88,Snow,Light Snow,260,2013-02-13 14:55:00
9:15 AM,30.2,30.2,100,29.55,9.0,West,8.1,-,0.10,Snow,Light Snow,270,2013-02-13 15:15:00
9:35 AM,30.2,30.2,100,29.55,10.0,West,13.8,-,0.13,Snow,Light Snow,280,2013-02-13 15:35:00
9:55 AM,30.2,30.2,100,29.55,10.0,WNW,11.5,-,0.13,,Overcast,290,2013-02-13 15:55:00
10:15 AM,30.2,30.2,100,29.55,10.0,WNW,17.3,-,N/A,,Overcast,300,2013-02-13 16:15:00
10:35 AM,32.0,32.0,100,29.56,10.0,WNW,15.0,-,N/A,,Overcast,300,2013-02-13 16:35:00
10:55 AM,32.0,32.0,100,29.57,10.0,WNW,15.0,-,N/A,,Overcast,300,2013-02-13 16:55:00
11:15 AM,32.0,32.0,100,29.57,10.0,WNW,16.1,-,N/A,,Overcast,300,2013-02-13 17:15:00
11:35 AM,32.0,32.0,100,29.58,10.0,WNW,13.8,-,N/A,,Overcast,300,2013-02-13 17:35:00
11:55 AM,32.0,32.0,100,29.58,10.0,WNW,15.0,19.6,N/A,,Overcast,300,2013-02-13 17:55:00
12:15 PM,32.0,32.0,100,29.59,10.0,WNW,15.0,19.6,N/A,,Overcast,300,2013-02-13 18:15:00
12:35 PM,32.0,32.0,100,29.59,10.0,WNW,16.1,-,N/A,,Overcast,300,2013-02-13 18:35:00
12:55 PM,32.0,32.0,100,29.59,10.0,WNW,16.1,-,N/A,,Overcast,300,2013-02-13 18:55:00
1:15 PM,32.0,32.0,100,29.60,10.0,NW,13.8,-,N/A,,Overcast,320,2013-02-13 19:15:00
1:35 PM,32.0,32.0,100,29.61,10.0,NW,17.3,20.7,N/A,,Overcast,320,2013-02-13 19:35:00
1:55 PM,32.0,32.0,100,29.62,10.0,NW,19.6,-,N/A,,Overcast,320,2013-02-13 19:55:00
2:15 PM,32.0,32.0,100,29.62,10.0,NNW,11.5,-,N/A,,Overcast,330,2013-02-13 20:15:00
2:35 PM,32.0,30.2,93,29.63,10.0,NW,13.8,-,N/A,,Overcast,320,2013-02-13 20:35:00
2:55 PM,32.0,30.2,93,29.63,10.0,NNW,15.0,19.6,N/A,,Overcast,330,2013-02-13 20:55:00
3:15 PM,30.2,30.2,100,29.64,10.0,NNW,15.0,20.7,N/A,,Overcast,330,2013-02-13 21:15:00
3:35 PM,30.2,30.2,100,29.65,10.0,NNW,10.4,-,N/A,,Overcast,340,2013-02-13 21:35:00
3:55 PM,30.2,30.2,100,29.66,10.0,NW,8.1,-,N/A,Rain,Freezing Rain,320,2013-02-13 21:55:00
4:15 PM,30.2,30.2,100,29.67,1.8,NW,8.1,-,0.06,Snow,Light Snow,320,2013-02-13 22:15:00
4:35 PM,30.2,30.2,100,29.67,5.0,NW,8.1,-,0.13,Snow,Light Snow,310,2013-02-13 22:35:00
4:55 PM,30.2,30.2,100,29.68,10.0,NW,8.1,-,0.13,Snow,Light Snow,310,2013-02-13 22:55:00
5:15 PM,30.2,30.2,100,29.68,10.0,WNW,10.4,-,N/A,,Overcast,300,2013-02-13 23:15:00
5:35 PM,30.2,30.2,100,29.69,5.0,WNW,16.1,23.0,0.01,Snow,Light Snow,290,2013-02-13 23:35:00
5:55 PM,28.4,28.4,100,29.70,5.0,WNW,13.8,-,0.04,Snow,Light Snow,300,2013-02-13 23:55:00
6:15 PM,28.4,28.4,100,29.70,10.0,WNW,16.1,-,N/A,Rain,Freezing Rain,300,2013-02-14 00:15:00
6:35 PM,28.4,28.4,100,29.70,10.0,NW,13.8,-,0.01,Snow,Light Snow,310,2013-02-14 00:35:00
6:55 PM,28.4,28.4,100,29.71,1.8,NW,12.7,19.6,0.14,Snow,Light Snow,310,2013-02-14 00:55:00
7:15 PM,28.4,28.4,100,29.72,10.0,WNW,11.5,-,N/A,,Overcast,300,2013-02-14 01:15:00
7:35 PM,30.2,30.2,100,29.72,10.0,WNW,12.7,-,N/A,,Overcast,300,2013-02-14 01:35:00
7:55 PM,30.2,30.2,100,29.71,10.0,WNW,10.4,-,N/A,Snow,Light Snow,300,2013-02-14 01:55:00
8:15 PM,32.0,32.0,100,29.71,10.0,NW,11.5,-,N/A,,Overcast,310,2013-02-14 02:15:00
8:35 PM,32.0,32.0,100,29.72,10.0,WNW,11.5,-,N/A,,Overcast,300,2013-02-14 02:35:00
8:55 PM,32.0,32.0,100,29.71,10.0,WNW,15.0,-,N/A,,Overcast,300,2013-02-14 02:55:00
9:15 PM,32.0,32.0,100,29.71,10.0,WNW,13.8,20.7,N/A,,Overcast,300,2013-02-14 03:15:00
9:35 PM,32.0,32.0,100,29.71,10.0,West,15.0,-,N/A,,Overcast,280,2013-02-14 03:35:00
9:55 PM,32.0,32.0,100,29.71,10.0,WNW,21.9,28.8,N/A,Rain,Light Rain,290,2013-02-14 03:55:00
10:15 PM,30.2,28.4,93,29.72,7.0,WNW,20.7,31.1,N/A,Snow,Light Snow,290,2013-02-14 04:15:00
10:35 PM,28.4,26.6,93,29.72,10.0,WNW,23.0,27.6,0.01,Snow,Light Snow,300,2013-02-14 04:35:00
10:55 PM,26.6,24.8,93,29.72,10.0,WNW,21.9,28.8,0.01,Snow,Light Snow,300,2013-02-14 04:55:00
11:15 PM,26.6,24.8,93,29.73,10.0,WNW,17.3,23.0,N/A,,Overcast,290,2013-02-14 05:15:00
11:35 PM,26.6,24.8,93,29.73,10.0,WNW,20.7,26.5,N/A,,Overcast,290,2013-02-14 05:35:00
11:55 PM,26.6,26.6,100,29.73,10.0,WNW,20.7,27.6,N/A,,Overcast,290,2013-02-14 05:55:00